Location: Kalberh�ni
(46.4610°N, 7.2453°E)
Time: 01:01:36
(UTC+00:00)

FALCON 9 DEB - Pass Details

Date: 20 June 2021
Orbit: 364 x 379 km, 53.0° (Epoch: 25 July)

Event Time Altitude Azimuth Distance (km) Brightness Sun altitude
Rises 20:17:04 0° 217° (SW) 2,248 6.7 -7.3°
Reaches altitude 10° 20:19:12 10° 207° (SSW) 1,402 5.5 -7.5°
Maximum altitude 20:22:05 34° 140° (SE) 655 3.5 -7.9°
Drops below altitude 10° 20:25:00 10° 73° (ENE) 1,416 5.5 -8.2°
Sets 20:27:10 0° 64° (ENE) 2,275 6.6 -8.5°
